CZ-2D DEB, 43487

Orbit data source: Space-Track

CZ-2D DEB, 43487 is space debris in SSO originally from a launch on Sat, 02 Jun 2018 UTC launched from the Jiuquan Satellite Launch Center, China (JSC). Debris objects in space refer to the collection of defunct objects orbiting the Earth. Examples of debris include non-operational satellites, rocket bodies, and fragments generated from explosions, collisions, or faulty payload assembly.

Loading next visibility...
Identifier
43487, 2018-048D
Orbit
SSO
Country
Flag of CNCN / PRC
Related business
Manufacturer
CALT
Mission
Spacecraft
Bus & Motor
Unknown
Mass
1 kg wet, 1 kg dry
Launch date (UTC)
2018-06-02 (7 years ago)
Launch vehicle
Unknown
Launch site
Jiuquan Satellite Launch Center, China (JSC)
Object type
Payload
Rocket body
Debris
Shape & HBR
Cone, 0.1 m
Radar Cross Section
0.025 m², Small (<0.1 m²)

Expand to show TLE details & history
Last TLE update: 6 hours ago

TLE from 6 hours ago
0 CZ-2D DEB
1 43487U 18048D   25307.77275419  .00004674  00000-0  50958-3 0  9997
2 43487  97.6164 318.0584 0028724  90.2819 270.1690 14.88119287400493
Epoch: 2025-11-03T18:32Z
TLE epoch observation values (Epoch: 2025-11-03T18:32:45.962Z)
Latitude
0.00003°
Longitude
-3.40244°
Altitude
606.852 km
Speed
7.556 km/s
True Right ascension
21h 12m 14s
True Declination
0° 00' 00"
Sunlit
Object was in daylight at epoch
Visualization orbit readout
Latitude
Unknown
Longitude
Unknown
Altitude
Unknown
Speed
Unknown
Apparent Right ascension
Unknown
Apparent Declination
Unknown
Sunlit
N/A
Visualization observer readout
Local Sidereal Time
19:58:44
Azimuth
Unknown
Elevation
Unknown
Doppler factor
Unknown
Orbital elements
Apogee altitude
620.876 km
Perigee altitude
580.783 km
Semi-major axis
6,978.967 km
Eccentricity
0.00287
Inclination
97.6164°
RAAN
318.0584°
Arg. of periapsis
90.2819°
True anomaly
269.83985°
Mean anomaly
270.169°
Eccentric anomaly
270.00442°
Mean motion
3.72269 °/min
Orbital period
96.7 mins
BSTAR
0.00050958
Loading maneuver chart data...
Computing Atmospheric mass density...
Loading historical data...
Loading historical data...
Loading historical data...
Loading historical data...
Loading historical data...
Loading historical data...
Loading historical data...
Other satellites on launch #48 in the year 2018 (2018-06-02 UTC)

Documentation

Showing up to 5 results
|